logo
App data

It Comes Around - A Kinetic Novel

As seen in Singapore's Doujima, Glass of Water Studios is proud to present It Comes Around, born from a partnership between Glass of Water Studios as well as Afterthought Studios (Forgotten,Not Lost & A More Beautiful World)A ritual to solve the mysterious death of a schoolmate goes horribly wrong, trapping the students and teachers o
Store | Hub | SteamDB | Site
Developer: Glass of Water Studios Publisher: Afterthought Studios
Genre: Casual, Indie, RPG, Simulation
Languages: English
Tags: Indie (64), Casual (33), Visual Novel (21), RPG (19), Simulation (19), Anime (16), Singleplayer (16), Horror (15), Story Rich (10)
Category: Single-player, Steam Trading Cards
Release date: Sep 29, 2016
Price: $2.99
Owners: 0 .. 20,000
Followers: 305
Peak concurrent players yesterday: 1
Playtime total: 05:07 (average) 05:08 (median)

Steam Spy is still in beta, so expect major bugs.

Owners data:

Access restricted.

This feature is only available to users with special access rights. Sorry.

If you want to proceed, you need to register or log in first and then back Steam Spy on Patreon. Look for Indie or Pro pledge.

Don't forget to use the same email as on Steam Spy!

If you've recently backed Steam Spy on Patreon, please note, that it might take around 15 minutes for your access rights to sync. In most cases you'll need to re-login on Steam Spy too.

Audience in 2 weeks:

Access restricted.

This feature is only available to users with special access rights. Sorry.

If you want to proceed, you need to register or log in first and then back Steam Spy on Patreon. Look for Indie or Pro pledge.

Don't forget to use the same email as on Steam Spy!

If you've recently backed Steam Spy on Patreon, please note, that it might take around 15 minutes for your access rights to sync. In most cases you'll need to re-login on Steam Spy too.

Peak daily concurrent players:

CCU data courtesy of SteamDB. Used with permission.

Hourly concurrent players:

Followers over time

Access restricted.

This feature is only available to users with special access rights. Sorry.

If you want to proceed, you need to register or log in first and then back Steam Spy on Patreon. Look for Indie or Pro pledge.

Don't forget to use the same email as on Steam Spy!

If you've recently backed Steam Spy on Patreon, please note, that it might take around 15 minutes for your access rights to sync. In most cases you'll need to re-login on Steam Spy too.

Views for top 50 videos on YouTube for this game:

Games similar to this one:

# Game Release date
Price
Score rank
(Userscore / Metascore)
Owners
Players
Playtime (Median)
1 Critter Crunch Sep 11, 2012 $6.99N/A (N/A)20,000 .. 50,0000%00:00 (00:00)
2 BIT.TRIP BEAT Nov 2, 2010 $5.99N/A (N/A)200,000 .. 500,0000%00:00 (00:00)
3 Super Splatters Jun 26, 2013 N/AN/A (N/A/73%)50,000 .. 100,0000%00:00 (00:00)
4 SOL: Exodus Jan 25, 2012 $7.99N/A (N/A/57%)50,000 .. 100,0000%00:00 (00:00)
5 Titan Attacks! Feb 3, 2012 $9.99N/A (N/A)50,000 .. 100,0000%00:00 (00:00)
6 BIT.TRIP CORE Oct 2, 2012 $9.99N/A (N/A)50,000 .. 100,0000%00:00 (00:00)
7 BIT.TRIP VOID Dec 19, 2012 $9.99N/A (N/A)20,000 .. 50,0000%00:00 (00:00)
8 Tales From Space: Mutant Blobs Attack Aug 15, 2012 $9.99N/A (N/A/83%)100,000 .. 200,0000%00:00 (00:00)
9 Unmechanical Aug 8, 2012 $9.99N/A (N/A/74%)100,000 .. 200,0000%00:00 (00:00)
10 Sugar Cube: Bittersweet Factory Nov 7, 2012 $6.99N/A (N/A)20,000 .. 50,0000%00:00 (00:00)
11 Party of Sin Dec 13, 2012 $5.99N/A (N/A)50,000 .. 100,0000%00:00 (00:00)
12 Home Aug 31, 2012 $4.99N/A (N/A/69%)200,000 .. 500,0000%00:00 (00:00)
13 Ultratron Mar 18, 2013 $9.99N/A (N/A)100,000 .. 200,0000%00:00 (00:00)
14 Cargo Commander Nov 1, 2012 $2.99N/A (N/A)100,000 .. 200,0000%00:00 (00:00)
15 Puddle Nov 9, 2012 $7.99N/A (N/A)100,000 .. 200,0000%00:00 (00:00)
16 Retro/Grade Mar 20, 2013 $2.49N/A (N/A)50,000 .. 100,0000%00:00 (00:00)
17 Papo & Yo Apr 18, 2013 $14.99N/A (N/A/70%)200,000 .. 500,0000%00:00 (00:00)
18 Dream Jul 31, 2015 $8.99N/A (N/A/59%)50,000 .. 100,0000%00:00 (00:00)
19 Bad Hotel Oct 16, 2013 $4.99N/A (N/A)50,000 .. 100,0000%00:00 (00:00)
20 Godus Dec 1, 1986 $14.99N/A (N/A)200,000 .. 500,0000%00:00 (00:00)
21 Wake Jun 19, 1983 $4.99N/A (N/A)0 .. 20,0000%00:00 (00:00)
22 Zack Zero Apr 29, 2013 $2.99N/A (N/A)50,000 .. 100,0000%00:00 (00:00)
23 Element4l May 24, 2013 $8.99N/A (N/A/77%)50,000 .. 100,0000%00:00 (00:00)
24 Intake Nov 6, 2013 $9.99N/A (N/A)20,000 .. 50,0000%00:00 (00:00)
25 Super Puzzle Platformer Deluxe May 24, 2013 $7.99N/A (N/A)20,000 .. 50,0000%00:00 (00:00)
26 Poöf Nov 8, 2013 $6.99N/A (N/A)20,000 .. 50,0000%00:00 (00:00)
27 The Novelist Dec 10, 2013 $4.99N/A (N/A/66%)100,000 .. 200,0000%00:00 (00:00)
28 Knytt Underground Oct 25, 2013 $6.99N/A (N/A)50,000 .. 100,0000%00:00 (00:00)
29 Escape Goat Oct 9, 2013 $4.99N/A (N/A)20,000 .. 50,0000%00:00 (00:00)
30 Constant C Mar 11, 2014 $9.99N/A (N/A/60%)0 .. 20,0000%00:00 (00:00)
31 Solar Flux Oct 24, 2013 $9.99N/A (N/A)100,000 .. 200,0000%00:00 (00:00)
32 Maia Nov 23, 2018 $24.99N/A (N/A)20,000 .. 50,0000%00:00 (00:00)
33 FOTONICA Nov 6, 2014 $14.99N/A (N/A/71%)50,000 .. 100,0000%00:00 (00:00)
34 Escape Goat 2 Mar 24, 2014 $9.99N/A (N/A/76%)50,000 .. 100,0000%00:00 (00:00)
35 Survivor Squad Nov 8, 2013 $2.99N/A (N/A)100,000 .. 200,0000%00:00 (00:00)
36 Montague's Mount Nov 19, 2013 $4.99N/A (N/A/39%)20,000 .. 50,0000%00:00 (00:00)
37 Ballpoint Universe - Infinite Dec 17, 2013 $3.99N/A (N/A)50,000 .. 100,0000%00:00 (00:00)
38 STARWHAL Sep 29, 2014 $11.99N/A (N/A)50,000 .. 100,0000%00:00 (00:00)
39 Final Rush Nov 21, 2014 $4.99N/A (N/A)20,000 .. 50,0000%00:00 (00:00)
40 Full Bore May 6, 2014 $14.99N/A (N/A/72%)20,000 .. 50,0000%00:00 (00:00)
41 Imagine Me Mar 14, 2014 $2.99N/A (N/A)20,000 .. 50,0000%00:00 (00:00)
42 Procyon Feb 26, 2014 $3.99N/A (N/A)20,000 .. 50,0000%00:00 (00:00)
43 Jones On Fire Mar 14, 2013 $2.99N/A (N/A)50,000 .. 100,0000%00:00 (00:00)
44 10 Second Ninja Mar 5, 2014 $1.99N/A (N/A/72%)50,000 .. 100,0000%00:00 (00:00)
45 Labyrinthine Dreams May 26, 2015 $1.99N/A (N/A)20,000 .. 50,0000%00:00 (00:00)
46 Imagine Earth May 25, 2021 $24.99N/A (N/A/78%)100,000 .. 200,0000%00:00 (00:00)
47 Munin Jun 10, 2014 $4.99N/A (N/A/68%)200,000 .. 500,0000%00:00 (00:00)
48 Rabbit Hole 3D: Steam Edition Apr 25, 2014 $2.99N/A (N/A)50,000 .. 100,0000%00:00 (00:00)
49 Kromaia Oct 23, 2014 $19.99N/A (N/A/68%)20,000 .. 50,0000%00:00 (00:00)
50 ReignMaker Apr 16, 2014 $14.99N/A (N/A)100,000 .. 200,0000%00:00 (00:00)
51 Volt Apr 14, 2014 $0.99N/A (N/A)100,000 .. 200,0000%00:00 (00:00)
52 Slip Apr 28, 2014 $0.99N/A (N/A)20,000 .. 50,0000%00:00 (00:00)
53 Vitrum Sep 25, 2012 $1.99N/A (N/A)0 .. 20,0000%00:00 (00:00)
54 Three Dead Zed Jul 7, 2014 $5.99N/A (N/A)50,000 .. 100,0000%00:00 (00:00)
55 Uriel's Chasm Sep 12, 2014 $4.99N/A (N/A)200,000 .. 500,0000%00:00 (00:00)
56 Cosmochoria Apr 27, 2015 $9.99N/A (N/A)20,000 .. 50,0000%00:00 (00:00)
57 Arson and Plunder: Unleashed Sep 25, 2015 $4.99N/A (N/A)20,000 .. 50,0000%00:00 (00:00)
58 Dreaming Sarah Mar 12, 2015 $5.99N/A (N/A)200,000 .. 500,0000%00:00 (00:00)
59 Captain Forever Remix Jun 3, 2016 $9.99N/A (N/A)20,000 .. 50,0000%00:00 (00:00)
60 Frederic: Resurrection of Music May 16, 2014 $2.99N/A (N/A)100,000 .. 200,0000%00:00 (00:00)
61 Frederic: Evil Strikes Back May 23, 2014 $7.99N/A (N/A)100,000 .. 200,0000%00:00 (00:00)
62 Rhythm Destruction Jun 16, 2014 $4.99N/A (N/A)50,000 .. 100,0000%00:00 (00:00)
63 Ballad of Solar May 22, 2014 $6.99N/A (N/A)0 .. 20,0000%00:00 (00:00)
64 Boson X Sep 15, 2014 $2.99N/A (N/A)200,000 .. 500,0000%00:00 (00:00)
65 TRISTOY Jan 15, 2015 $6.99N/A (N/A/49%)20,000 .. 50,0000%00:00 (00:00)
66 Echo of the Wilds Jun 10, 2014 $3.84N/A (N/A)0 .. 20,0000%00:00 (00:00)
67 POP: Methodology Experiment One May 10, 2012 $3.99N/A (N/A)0 .. 20,0000%00:00 (00:00)
68 Iron Fisticle Sep 16, 2014 $0.89N/A (N/A)50,000 .. 100,0000%00:00 (00:00)
69 Fancy Skulls Jun 16, 2014 $8.99N/A (N/A)20,000 .. 50,0000%00:00 (00:00)
70 Curses 'N Chaos Aug 18, 2015 $9.99N/A (N/A)20,000 .. 50,0000%00:00 (00:00)
71 Back to Bed Aug 6, 2014 $5.99N/A (N/A)1,000,000 .. 2,000,0000%00:00 (00:00)
72 NEON STRUCT May 20, 2015 $17.99N/A (N/A/62%)50,000 .. 100,0000%00:00 (00:00)
73 OTTTD Aug 6, 2014 $7.99N/A (N/A)0 .. 20,0000%00:00 (00:00)
74 The Masterplan Jun 4, 2015 $19.99N/A (N/A/68%)50,000 .. 100,0000%00:00 (00:00)
75 Velocibox Sep 8, 2014 $4.99N/A (N/A)50,000 .. 100,0000%00:00 (00:00)
76 Supreme: Pizza Empire Jan 9, 2015 $9.99N/A (N/A)0 .. 20,0000%00:00 (00:00)
77 Squishy the Suicidal Pig Oct 23, 2014 $5.99N/A (N/A)200,000 .. 500,0000%00:00 (00:00)
78 Chariot Nov 12, 2014 $14.99N/A (N/A/76%)100,000 .. 200,0000%00:00 (00:00)
79 Ninja Pizza Girl Sep 30, 2015 $6.99N/A (N/A/82%)50,000 .. 100,0000%00:00 (00:00)
80 iO Dec 5, 2014 $4.99N/A (N/A)20,000 .. 50,0000%00:00 (00:00)
81 Horizon Shift May 29, 2015 $1.49N/A (N/A)100,000 .. 200,0000%00:00 (00:00)
82 Instant Dungeon! Nov 25, 2014 $1.99N/A (N/A)0 .. 20,0000%00:00 (00:00)
83 Super Life of Pixel Oct 22, 2014 $9.99N/A (N/A)20,000 .. 50,0000%00:00 (00:00)
84 The Deer God Feb 27, 2015 $14.99N/A (N/A/59%)20,000 .. 50,0000%00:00 (00:00)
85 Pix the Cat Jan 29, 2015 $4.99N/A (N/A/77%)50,000 .. 100,0000%00:00 (00:00)
86 Tulpa Jan 29, 2015 $2.99N/A (N/A)50,000 .. 100,0000%00:00 (00:00)
87 Phoenix Force Nov 13, 2014 $0.99N/A (N/A)100,000 .. 200,0000%00:00 (00:00)
88 Marvin's Mittens Dec 17, 2014 $5.99N/A (N/A)20,000 .. 50,0000%00:00 (00:00)
89 A Druid's Duel Feb 25, 2015 $7.99N/A (N/A/70%)0 .. 20,0000%00:00 (00:00)
90 Dwarf Tower Dec 23, 2014 $0.99N/A (N/A)20,000 .. 50,0000%00:00 (00:00)
91 Ephemerid: A Musical Adventure Feb 3, 2015 $1.99N/A (N/A)20,000 .. 50,0000%00:00 (00:00)
92 Sky Mercenaries Dec 16, 2014 $9.99N/A (N/A)20,000 .. 50,0000%00:00 (00:00)
93 Chronicles of a Dark Lord: Episode 1 Tides of Fate Complete Dec 19, 2014 N/AN/A (N/A)50,000 .. 100,0000%00:00 (00:00)
94 Bermuda Mar 17, 2015 $2.99N/A (N/A)50,000 .. 100,0000%00:00 (00:00)
95 TIMEframe Jul 7, 2015 $5.99N/A (N/A)50,000 .. 100,0000%00:00 (00:00)
96 Glorkian Warrior: The Trials Of Glork Mar 24, 2015 $3.99N/A (N/A)20,000 .. 50,0000%00:00 (00:00)
97 Countless Rooms of Death Jan 9, 2015 $0.99N/A (N/A)20,000 .. 50,0000%00:00 (00:00)
98 stratO Jun 1, 2015 $4.99N/A (N/A)0 .. 20,0000%00:00 (00:00)
99 It came from space and ate our brains Mar 19, 2015 $14.99N/A (N/A)200,000 .. 500,0000%00:00 (00:00)
100 Disillusions Manga Horror Jan 16, 2015 $0.99N/A (N/A)20,000 .. 50,0000%00:00 (00:00)
101 Three Fourths Home: Extended Edition Mar 20, 2015 $4.99N/A (N/A/77%)20,000 .. 50,0000%00:00 (00:00)
102 The Cursed Forest Feb 26, 2019 $13.99N/A (N/A)20,000 .. 50,0000%00:00 (00:00)
103 Rats - Time is running out! Aug 19, 2015 N/AN/A (N/A)50,000 .. 100,0000%00:00 (00:00)
104 BlastZone 2 Feb 19, 2015 $9.99N/A (N/A)20,000 .. 50,0000%00:00 (00:00)
105 Scribble Space Jun 1, 2015 $1.99N/A (N/A)50,000 .. 100,0000%00:00 (00:00)
106 Porcunipine May 21, 2015 $0.99N/A (N/A)20,000 .. 50,0000%00:00 (00:00)
107 An Octave Higher Mar 27, 2015 $11.99N/A (N/A)20,000 .. 50,0000%00:00 (00:00)
108 Bunker - The Underground Game May 21, 2015 $3.99N/A (N/A/70%)0 .. 20,0000%00:00 (00:00)
109 Miner Warfare Jun 11, 2015 $2.99N/A (N/A)0 .. 20,0000%00:00 (00:00)
110 NEO AQUARIUM - The King of Crustaceans - Jun 8, 2015 $8.99N/A (N/A)50,000 .. 100,0000%00:00 (00:00)
111 Reign of Bullets Aug 19, 2015 $9.99N/A (N/A)0 .. 20,0000%00:00 (00:00)
112 Centauri Sector Jun 23, 2015 $4.99N/A (N/A)20,000 .. 50,0000%00:00 (00:00)
113 Home is Where One Starts... May 12, 2015 $2.99N/A (N/A)20,000 .. 50,0000%00:00 (00:00)
114 Beyond Eyes Aug 11, 2015 N/AN/A (N/A/60%)100,000 .. 200,0000%00:00 (00:00)
115 Soccer Rage Jun 2, 2015 $9.99N/A (N/A)20,000 .. 50,0000%00:00 (00:00)
116 Inside My Radio May 11, 2015 $2.99N/A (N/A/68%)20,000 .. 50,0000%00:00 (00:00)
117 Gryphon Knight Epic Aug 20, 2015 $12.99N/A (N/A/55%)20,000 .. 50,0000%00:00 (00:00)
118 Canabalt Apr 30, 2015 $2.99N/A (N/A)20,000 .. 50,0000%00:00 (00:00)
119 Hare In The Hat Apr 1, 2015 $1.99N/A (N/A)50,000 .. 100,0000%00:00 (00:00)
120 Spellsworn Mar 13, 2018 FreeN/A (N/A)100,000 .. 200,0000%00:00 (00:00)
121 Luna Sky Oct 2, 2015 $12.99N/A (N/A)50,000 .. 100,0000%00:00 (00:00)
122 BRAWL Aug 13, 2015 $14.99N/A (N/A)0 .. 20,0000%00:00 (00:00)
123 AdvertCity Apr 17, 2015 $19.99N/A (N/A)0 .. 20,0000%00:00 (00:00)
124 Broken Bots Jun 7, 2016 $6.99N/A (N/A)0 .. 20,0000%00:00 (00:00)
125 Pixel Star May 22, 2015 $2.99N/A (N/A)20,000 .. 50,0000%00:00 (00:00)
126 Polyball Dec 1, 2017 $14.99N/A (N/A)200,000 .. 500,0000%00:00 (00:00)
127 Mysterious Space May 15, 2015 $10N/A (N/A)0 .. 20,0000%00:00 (00:00)
128 Cosmophony Jul 9, 2015 $4.99N/A (N/A)20,000 .. 50,0000%00:00 (00:00)
129 Shoot 1UP Sep 23, 2015 $3.99N/A (N/A)20,000 .. 50,0000%00:00 (00:00)
130 Impossiball Aug 8, 2017 $0.99N/A (N/A)0 .. 20,0000%00:00 (00:00)
131 Pizza Express Jun 25, 2015 $6.99N/A (N/A)20,000 .. 50,0000%00:00 (00:00)
132 The Adventures of Mr. Bobley Jul 1, 2015 $0.99N/A (N/A)100,000 .. 200,0000%00:00 (00:00)
133 Monument Jun 5, 2015 $0.49N/A (N/A)200,000 .. 500,0000%00:00 (00:00)
134 Western Press Apr 21, 2016 $4.99N/A (N/A)20,000 .. 50,0000%00:00 (00:00)
135 Fortify Apr 8, 2016 $4.99N/A (N/A)0 .. 20,0000%00:00 (00:00)
136 Untamed: Life Of A Cougar Aug 27, 2015 $14.99N/A (N/A)0 .. 20,0000%00:00 (00:00)
137 Sky Rogue Aug 24, 2017 $19.99N/A (N/A)50,000 .. 100,0000%00:00 (00:00)
138 Orion Trail Oct 12, 2015 $7.99N/A (N/A)0 .. 20,0000%00:00 (00:00)
139 Action Alien Jun 26, 2015 $2.39N/A (N/A)50,000 .. 100,0000%00:00 (00:00)
140 8Bit Fiesta - Party Game Sep 30, 2016 FreeN/A (N/A)50,000 .. 100,0000%00:00 (00:00)
141 RETSNOM Jul 23, 2015 $4.99N/A (N/A)0 .. 20,0000%00:00 (00:00)
142 Dead In Bermuda Aug 27, 2015 $14.99N/A (N/A)20,000 .. 50,0000%00:00 (00:00)
143 Aviary Attorney Dec 21, 2015 $14.99N/A (N/A/77%)50,000 .. 100,0000%00:00 (00:00)
144 none Nov 4, 2015 N/AN/A (N/A)20,000 .. 50,0000%00:00 (00:00)
145 Stray Cat Crossing Aug 28, 2015 $2.99N/A (N/A)20,000 .. 50,0000%00:00 (00:00)
146 Super Trench Attack 2 Nov 6, 2015 $2.99N/A (N/A)20,000 .. 50,0000%00:00 (00:00)
147 A.I. Invasion Sep 30, 2015 $9.99N/A (N/A)0 .. 20,0000%00:00 (00:00)
148 Earth Overclocked Dec 4, 2015 $4.99N/A (N/A)20,000 .. 50,0000%00:00 (00:00)
149 iZBOT Sep 1, 2015 $11.99N/A (N/A)20,000 .. 50,0000%00:00 (00:00)
150 Stardust Galaxy Warriors: Stellar Climax Nov 10, 2015 $9.99N/A (N/A)50,000 .. 100,0000%00:00 (00:00)
151 Redemption: Eternal Quest Aug 28, 2015 $0.99N/A (N/A)100,000 .. 200,0000%00:00 (00:00)
152 Angry Arrows Aug 12, 2015 $4.99N/A (N/A)20,000 .. 50,0000%00:00 (00:00)
153 Void Invaders Aug 14, 2015 $2.99N/A (N/A)20,000 .. 50,0000%00:00 (00:00)
154 Blaster Shooter GunGuy! Aug 10, 2015 $1.99N/A (N/A)100,000 .. 200,0000%00:00 (00:00)
155 Wild Island Quest Sep 4, 2015 $1.99N/A (N/A)50,000 .. 100,0000%00:00 (00:00)
156 Shmadow Nov 3, 2015 $1.99N/A (N/A)20,000 .. 50,0000%00:00 (00:00)
157 Moonbase 332 May 20, 2015 $4.99N/A (N/A)20,000 .. 50,0000%00:00 (00:00)
158 Dragon's Wake Dec 10, 2015 $3.99N/A (N/A)0 .. 20,0000%00:00 (00:00)
159 Kitchen Simulator 2015 Sep 2, 2015 $0.99N/A (N/A)20,000 .. 50,0000%00:00 (00:00)
160 Press X to Not Die Oct 6, 2017 $2.99N/A (N/A)100,000 .. 200,0000%00:00 (00:00)
161 1,000 Heads Among the Trees Dec 11, 2015 $4.99N/A (N/A)100,000 .. 200,0000%00:00 (00:00)
162 Dream Factory Nov 2, 2015 $9.99N/A (N/A)20,000 .. 50,0000%00:00 (00:00)
163 Fist Slash: Of Ultimate Fury Dec 10, 2015 $3.99N/A (N/A)20,000 .. 50,0000%00:00 (00:00)
164 Perraw - FPS Clone War Alpha Jan 29, 2016 $0.99N/A (N/A)20,000 .. 50,0000%00:00 (00:00)
165 Morphine Oct 26, 2015 $2.99N/A (N/A)20,000 .. 50,0000%00:00 (00:00)
166 Days Under Custody Nov 23, 2015 $4.99N/A (N/A)20,000 .. 50,0000%00:00 (00:00)
167 Heavy Gear Assault Feb 10, 2017 $39.99N/A (N/A)0 .. 20,0000%00:00 (00:00)
168 Planet Diver Nov 30, 2015 $3.99N/A (N/A)0 .. 20,0000%00:00 (00:00)
169 Cosmic Leap Mar 17, 2016 $0.99N/A (N/A)20,000 .. 50,0000%00:00 (00:00)
170 Godus Wars Feb 3, 2016 $14.99N/A (N/A)50,000 .. 100,0000%00:00 (00:00)
171 Bell Ringer Mar 18, 2016 $6.99N/A (N/A)100,000 .. 200,0000%00:00 (00:00)
172 PERFECT ANGLE: The puzzle game based on optical illusions Dec 22, 2015 $9.99N/A (N/A)50,000 .. 100,0000%00:00 (00:00)
173 IMSCARED Jan 31, 2016 $3.99N/A (N/A)20,000 .. 50,0000%00:00 (00:00)
174 Doodle Kingdom Jun 9, 2016 $8.99N/A (N/A)50,000 .. 100,0000%00:00 (00:00)
175 Rencounter Nov 4, 2016 $5.99N/A (N/A)50,000 .. 100,0000%00:00 (00:00)
176 Evertown Jan 11, 2016 $1.99N/A (N/A)0 .. 20,0000%00:00 (00:00)
177 10 Second Ninja X Jul 19, 2016 $0.99N/A (N/A)200,000 .. 500,0000%00:00 (00:00)
178 Empire of the Gods Jan 27, 2016 $1.99N/A (N/A)50,000 .. 100,0000%00:00 (00:00)
179 Mindless Running Feb 22, 2016 $0.99N/A (N/A)20,000 .. 50,0000%00:00 (00:00)
180 Bunker Punks May 28, 2018 $14.99N/A (N/A)0 .. 20,0000%00:00 (00:00)
181 Share May 3, 2016 $0.99N/A (N/A)20,000 .. 50,0000%00:00 (00:00)
182 Amigdala Mar 28, 2016 $5.99N/A (N/A)20,000 .. 50,0000%00:00 (00:00)
183 Cube Land Arena Mar 8, 2019 $0.99N/A (N/A)50,000 .. 100,0000%00:00 (00:00)
184 Brute May 17, 2017 $6.99N/A (N/A)0 .. 20,0000%00:00 (00:00)
185 Hero Quest: Tower Conflict Apr 13, 2016 $0.99N/A (N/A)200,000 .. 500,0000%00:00 (00:00)
186 CrazyCars3D Jun 14, 2016 $2.99N/A (N/A)50,000 .. 100,0000%00:00 (00:00)
187 Mainlining Jan 26, 2017 $12.99N/A (N/A/73%)50,000 .. 100,0000%00:00 (00:00)
188 OPUS: The Day We Found Earth Apr 21, 2016 $8.99N/A (N/A)100,000 .. 200,0000%00:00 (00:00)
189 Wrath of Anna Apr 2, 2018 $19.99N/A (N/A)50,000 .. 100,0000%00:00 (00:00)
190 Snooker Nation Championship Apr 27, 2016 $3.99N/A (N/A)20,000 .. 50,0000%00:00 (00:00)
191 Dashy Square Apr 25, 2016 $2.99N/A (N/A)0 .. 20,0000%00:00 (00:00)
192 Moonstone Tavern - A Fantasy Tavern Sim! May 13, 2016 $7.99N/A (N/A)20,000 .. 50,0000%00:00 (00:00)
193 NORTH Apr 27, 2016 $1.99N/A (N/A)200,000 .. 500,0000%00:00 (00:00)
194 上帝之城 I:监狱帝国 [City of God I - Prison Empire] Jul 9, 2018 $18.99N/A (N/A)100,000 .. 200,0000%00:00 (00:00)
195 Scanner Sombre Apr 26, 2017 $5.99N/A (N/A/67%)100,000 .. 200,0000%00:00 (00:00)
196 ORCS May 20, 2016 $1.99N/A (N/A)20,000 .. 50,0000%00:00 (00:00)
197 Star Drifter Jun 1, 2016 $0.99N/A (N/A)200,000 .. 500,0000%00:00 (00:00)
198 Call Of The Mighty Warriors Mar 1, 2019 $0.99N/A (N/A)100,000 .. 200,0000%00:00 (00:00)
199 Karma Miwa Aug 12, 2016 $0.99N/A (N/A)20,000 .. 50,0000%00:00 (00:00)
200 Super Duper Party Pooper Jun 6, 2016 $0.99N/A (N/A/40%)100,000 .. 200,0000%00:00 (00:00)
201 DashBored Jun 13, 2016 $4.99N/A (N/A)50,000 .. 100,0000%00:00 (00:00)
202 Robot Legions Reborn Jul 19, 2016 $2.99N/A (N/A)20,000 .. 50,0000%00:00 (00:00)
203 Pixel Cup Soccer 17 Aug 4, 2016 $9.99N/A (N/A)0 .. 20,0000%00:00 (00:00)
204 Alteric Jul 13, 2016 $3.99N/A (N/A)20,000 .. 50,0000%00:00 (00:00)
205 Dinosaur Forest May 17, 2017 $1.99N/A (N/A)50,000 .. 100,0000%00:00 (00:00)
206 Showdown Adventure Sep 21, 2016 N/AN/A (N/A)20,000 .. 50,0000%00:00 (00:00)
207 Joana's Life Sep 1, 2016 $0.99N/A (N/A)50,000 .. 100,0000%00:00 (00:00)
208 Intensive Exposure Sep 6, 2016 $4.99N/A (N/A)0 .. 20,0000%00:00 (00:00)
209 Starship Annihilator Sep 2, 2016 $0.99N/A (N/A)20,000 .. 50,0000%00:00 (00:00)
210 Deisim Dec 19, 2016 $7.99N/A (N/A)50,000 .. 100,0000%00:00 (00:00)
211 Please, Don't Touch Anything 3D Dec 7, 2016 $9.99N/A (N/A)100,000 .. 200,0000%00:00 (00:00)
212 mr.President Prologue Episode Sep 20, 2016 $0.99N/A (N/A)20,000 .. 50,0000%00:00 (00:00)
213 Academagia: The Making of Mages Aug 13, 2010 $15.99N/A (N/A)20,000 .. 50,0000%00:00 (00:00)
214 BoomTown! Deluxe Oct 14, 2016 $0.99N/A (N/A)20,000 .. 50,0000%00:00 (00:00)
215 Snake Pass Mar 28, 2017 $19.99N/A (N/A/71%)200,000 .. 500,0000%00:00 (00:00)
216 Wayout Nov 4, 2016 $0.49N/A (N/A)50,000 .. 100,0000%00:00 (00:00)
217 Zolg Dec 2, 2016 $0.49N/A (N/A)50,000 .. 100,0000%00:00 (00:00)
218 99Vidas Dec 22, 2016 $12.99N/A (N/A/69%)50,000 .. 100,0000%00:00 (00:00)
219 Witch It Oct 22, 2020 $19.99N/A (N/A)200,000 .. 500,0004.35%00:29 (00:24)
220 Introvert Quest Mar 15, 2017 $2.99N/A (N/A)100,000 .. 200,0000%00:00 (00:00)
221 Distant Space Dec 20, 2016 $0.99N/A (N/A)100,000 .. 200,0007.14%04:32 (01:30)
222 Child Phobia: Nightcoming Fears Dec 20, 2016 $1.99N/A (N/A)20,000 .. 50,0000%00:00 (00:00)
223 Mistwood Heroes Dec 30, 2016 $0.99N/A (N/A)20,000 .. 50,0000%00:00 (00:00)
224 Starship Theory Jul 4, 2017 FreeN/A (N/A)20,000 .. 50,0000%00:00 (00:00)
225 Three Kingdoms The Last Warlord Feb 2021 $19.99N/A (N/A)100,000 .. 200,0000%00:00 (00:00)
226 GORN Jul 18, 2019 $19.99N/A (N/A/85%)200,000 .. 500,0000%00:00 (00:00)
227 Monolith Jun 7, 2017 $7.99N/A (N/A/83%)100,000 .. 200,0000%00:00 (00:00)
228 Guns of Icarus Alliance Mar 31, 2017 $4.99N/A (N/A)100,000 .. 200,0000%00:00 (00:00)
229 The Archotek Project Apr 28, 2017 $0.99N/A (N/A)200,000 .. 500,0000%00:00 (00:00)

Tags over time:

Access restricted.

This feature is only available to users with special access rights. Sorry.

If you want to proceed, you need to register or log in first and then back Steam Spy on Patreon. Look for Indie or Pro pledge.

Don't forget to use the same email as on Steam Spy!

If you've recently backed Steam Spy on Patreon, please note, that it might take around 15 minutes for your access rights to sync. In most cases you'll need to re-login on Steam Spy too.

Owners of this game also own:

Access restricted.

This feature is only available to users with special access rights. Sorry.

If you want to proceed, you need to register or log in first and then back Steam Spy on Patreon. Look for Indie or Pro pledge.

Don't forget to use the same email as on Steam Spy!

If you've recently backed Steam Spy on Patreon, please note, that it might take around 15 minutes for your access rights to sync. In most cases you'll need to re-login on Steam Spy too.

Playtime distribution:

Access restricted.

This feature is only available to users with special access rights. Sorry.

If you want to proceed, you need to register or log in first and then back Steam Spy on Patreon. Look for Indie or Pro pledge.

Don't forget to use the same email as on Steam Spy!

If you've recently backed Steam Spy on Patreon, please note, that it might take around 15 minutes for your access rights to sync. In most cases you'll need to re-login on Steam Spy too.

Playtime (2 weeks):

Access restricted.

This feature is only available to users with special access rights. Sorry.

If you want to proceed, you need to register or log in first and then back Steam Spy on Patreon. Look for Indie or Pro pledge.

Don't forget to use the same email as on Steam Spy!

If you've recently backed Steam Spy on Patreon, please note, that it might take around 15 minutes for your access rights to sync. In most cases you'll need to re-login on Steam Spy too.

User reviews:

Login required.

Please register or log in to see this information.